Flag for Uruguay Weather past 2 weeks in Melo, Uruguay

Now
64 °F

Passing clouds.


Feels Like: 64 °F
Forecast: 60 / 85 °F
Wind: 2 mph from West

Location: Pelotas Airport

Current Time: Dec 18, 2014 at 5:38:39 AM

Latest Report: Dec 18, 2014 at 5:00 AM


Visibility: N/A

Pressure: 29.83 "Hg

Humidity: 100%

Dew point: 64 °F

Location of MeloLocation

Historic Weather in Melo — Graph

°F

Melo temperature yesterday

Maximum temperature yesterday: 82 °F (at 3:00 PM)
Minimum temperature yesterday: 68 °F (at 2:00 AM)
Average temperature yesterday: 74 °F

Past Weeks' High & Low Weather Summary

 TemperatureHumidityPressure
High91 °F (Dec 7, 12:00 PM)100% (Dec 3, 4:00 AM)30.27 "Hg (Dec 3, 4:00 AM)
Low57 °F (Dec 4, 3:00 AM)33% (Dec 6, 1:00 PM)29.62 "Hg (Dec 10, 5:00 AM)
Average72 °F80%29.92 "Hg
* Reported Dec 3 4:00 AM — Dec 18 4:00 AM, Melo, Weather by CustomWeather, © 2014

Note: Actual official high and low records may vary slightly from our data, if they occured in-between our weather recording intervals... More about our weather records

Advertising

Melo weather history for previous 24 hours

 ConditionsComfort  
Time TempWeatherWind HumidityBarometerVisibility
4:00 AM
Dec 18
66 °FClear.2 mph100%29.83 "Hg10 mi
3:00 AM66 °FClear.3 mph100%29.83 "Hg10 mi
2:00 AM68 °FClear.3 mph100%29.83 "Hg10 mi
1:00 AM68 °FClear.3 mph100%29.83 "Hg10 mi
12:00 AM68 °FClear.3 mph100%29.83 "Hg10 mi
11:00 PM
Dec 17
70 °FClear.7 mph94%29.83 "Hg10 mi
10:00 PM73 °FPartly cloudy.9 mph94%29.80 "HgN/A
9:00 PM73 °FPassing clouds.2 mph100%29.77 "HgN/A
8:00 PM73 °FBroken clouds.3 mph100%29.77 "HgN/A
7:00 PM73 °FSprinkles. Partly sunny.12 mph89%29.77 "HgN/A
6:00 PM81 °FScattered clouds.12 mph74%29.74 "HgN/A
5:00 PM82 °FScattered clouds.9 mph70%29.77 "HgN/A
4:00 PM82 °FBroken clouds.10 mph66%29.77 "HgN/A
3:00 PM82 °FPartly sunny.9 mph66%29.77 "HgN/A
2:00 PM81 °FPartly sunny.12 mph74%29.77 "HgN/A
1:00 PM79 °FPartly sunny.8 mph79%29.80 "HgN/A
12:00 PM79 °FPartly sunny.9 mph79%29.80 "HgN/A
11:00 AM77 °FBroken clouds.6 mph83%29.83 "HgN/A
10:00 AM75 °FMore clouds than sun.6 mph94%29.83 "HgN/A
9:00 AM72 °FMostly cloudy.8 mph100%29.83 "HgN/A
8:00 AM72 °FLow clouds.6 mph100%29.83 "HgN/A
7:00 AM70 °FMostly cloudy.7 mph100%29.83 "Hg6 mi
6:00 AM70 °FPartly cloudy.8 mph100%29.83 "HgN/A
5:00 AM70 °FPassing clouds.8 mph100%29.86 "HgN/A
Weather by CustomWeather, © 2014

See weather overviewHow to use our weather pages